Regional Weather Roundup
Issued by NWS Wakefield, VA

Home | Current Version | Previous Version | Text Only | Print | Product List | Glossary Off
Versions: 1 2 3 4 5 6 7 8 9 10 11 12 13 14 15 16 17 18 19 20 21 22 23 24 25 26 27

000
ASUS41 KAKQ 300515
RWRAKQ

REGIONAL WEATHER ROUNDUP
NATIONAL WEATHER SERVICE WAKEFIELD VA
100 AM EDT FRI SEP 30 2016

Note: "fair" indicates few or no clouds below 12,000 feet with no
significant weather and/or obstructions to visibility. * = Denotes
station may not report precipitation (e.g., rain,snow,etc.),
thunder or fog.

VAZ042-051-052>054-056-300600-
NORTHERN VIRGINIA

CITY           SKY/WX    TMP DP  RH WIND       PRES   REMARKS
WASH NATIONAL  LGT RAIN  65  64  97 NE17G25   30.14F
DULLES         LGT RAIN  62  60  93 E15       30.13F
FORT BELVOIR   LGT RAIN  64  61  88 VRB3      30.11F
QUANTICO       RAIN      66  64  94 NE9       30.13F FOG
FREDERICKSBRG* DRIZZLE   66  66 100 NE7       30.09F
STAFFORD*      DRIZZLE   64  64 100 NE8       30.15F
WARRENTON      CLOUDY    64  60  85 NE5       30.13S
CULPEPER*      DRIZZLE   65  64  99 NE5       30.13F
MANASSAS*      CLOUDY    64  64 100 NE6       30.13F
LEESBURG*      RAIN      63  63 100 NE7       30.16F
WINCHESTER     LGT RAIN  61  61 100 NE5       30.16F
FRONT ROYAL*   CLOUDY    61  61 100 NE7       30.14F
LURAY*         DRIZZLE  N/A N/A N/A NE5       30.13S
$$

VAZ048-049-060>072-079>083-300600-
CENTRAL AND SOUTH CENTRAL VIRGINIA

CITY           SKY/WX    TMP DP  RH WIND       PRES   REMARKS
RICHMOND       CLOUDY    68  67  96 NE7       30.05F FOG
CHESTERFIELD*  CLOUDY    70  55  60 NE5       30.07F
PETERSBURG*    LGT RAIN N/A N/A N/A NE5       30.06F
HANOVER        CLOUDY    67  65  93 NE6       30.08F FOG
TAPPAHANNOCK*  DRIZZLE   69  69 100 N6        30.08F
QUINTON*       CLOUDY    68  68 100 NE5       30.05F FOG
CHARLOTTSVILLE CLOUDY    67  64  90 NE12      30.09F
GORDONSVILLE*  CLOUDY    64  64 100 NE9       30.09
ORANGE*        DRIZZLE   64  64 100 N5        30.12F
LOUISA*        CLOUDY    70  66  88 NE7       30.08F
BUMPASS*       CLOUDY    65  65 100 CALM      30.09F
FARMVILLE*     RAIN      69  68  98 NE7       30.05F
CREWE*         CLOUDY    68  68 100 NE3       30.05F
FORT PICKETT*  CLOUDY   N/A N/A N/A NE6       30.05F
CHASE CITY*    CLOUDY    70  68  94 E5        30.04F
CLARKSVILLE*   CLOUDY    72  72 100 E7        30.02F
SOUTH HILL*    CLOUDY    69  69 100 CALM      30.09F
LAWRENCEVILLE* CLOUDY    69  68  97 CALM      30.04F
EMPORIA*       CLOUDY    70  70 100 NE3       30.05F FOG
$$

VAZ088>098-300600-
SOUTHEAST VIRGINIA

CITY           SKY/WX    TMP DP  RH WIND       PRES   REMARKS
NORFOLK        MOCLDY    72  72 100 CALM      30.02F FOG
VIRGINIA BEACH CLOUDY    69  68  96 CALM      30.01F FOG
NORFOLK NAVAL  MOCLDY    72  71  97 CALM      30.03F FOG
WEST POINT*    CLOUDY    70  69  98 NE5       30.07F
SALUDA*        CLOUDY    72  72 100 NE3       30.05F
NEWPORT NEWS   CLOUDY    73  72  96 N3        30.03F
LANGLEY AFB    MOCLDY    73  72  98 N2        30.02F
FORT EUSTIS    CLOUDY    72  71  96 NE3       30.01F
WILLIAMSBURG*  CLOUDY    73  72  94 CALM      30.05F
HR EXEC AP*    CLOUDY    68  66  94 CALM      30.05F VSB 1/2
FRANKLIN*      CLOUDY    67  66  98 CALM      30.04F FOG
US460-WAKEFLD  CLOUDY    70  69  97 CALM      30.04F FOG
$$

VAZ020-022-025-037-045-300600-
WEST CENTRAL AND SOUTHWEST VIRGINIA

CITY           SKY/WX    TMP DP  RH WIND       PRES   REMARKS
STAUNTON*      LGT RAIN  63  62  94 E8        30.11F
WAYNESBORO*    CLOUDY    63  62  96 E8        30.10F
HOT SPRINGS VA NOT AVBL
LYNCHBURG      LGT RAIN  67  66  97 E9        30.05F
DANVILLE       MOCLDY    70  69  97 VRB3      30.01F
SOUTH BOSTON*  CLOUDY    72  70  95 E5        30.02F
MARTINSVILLE   CLOUDY    68  66  94 CALM      30.03F
ROANOKE        CLOUDY    67  65  93 CALM      30.05S
BLACKSBURG     PTCLDY    59  59 100 CALM      30.08F FOG
DUBLIN*        FOG       60  60 100 CALM      30.07F VSB 1/4
MARION*        RAIN      58  56  96 NE7       30.07F
HILLSVILLE*    CLOUDY    58  58 100 N3        30.06F
RICHLANDS*     FOG       53  53 100 CALM      30.08F VSB 1
WISE*          CLOUDY    54  52  94 CALM      30.09S
ABINGDON*      CLOUDY    57  57  98 CALM      30.07S
$$

MDZ021>025-VAZ099-100-300600-
SOUTHERN MARYLAND AND THE DELMARVA PENINSULA

CITY           SKY/WX    TMP DP  RH WIND       PRES   REMARKS
PATUXENT RIVER CLOUDY    67  65  93 E12G23    30.08F
BAY BRIDGE APT RAIN      63  61  94 MISG      30.14F FOG
LEONARDTOWN    CLOUDY    64  63  94 NE7       30.11F
DOVER          LGT RAIN  64  64 100 NE17G24   30.15F
GEORGETOWN     HVY RAIN  67 N/A N/A NE16G24   30.12F
EASTON         NOT AVBL
CAMBRIDGE      CLOUDY    64  63  94 NE10G16   30.10F
SALISBURY      RAIN      69  68  96 NE16      30.06F FOG
OCEAN CITY     CLOUDY   N/A N/A N/A E25G37    30.05F
WALLOPS ISLAND LGT RAIN  73  72  96 E15       30.04F
ACCOMACK*      CLOUDY   N/A N/A N/A NE8       30.03F HAZE
$$

NCZ012>017-030>032-300600-
NORTH CENTRAL AND EASTERN NORTH CAROLINA

CITY           SKY/WX    TMP DP  RH WIND       PRES   REMARKS
ROANOKE RAPIDS CLOUDY    70  70 100 E3        30.03F
RALEIGH        CLOUDY    73  70  90 SE7       30.01F
ELIZABETH CITY PTCLDY    69  68  96 CALM      30.03F FOG
AHOSKIE*       CLOUDY    70  69  98 N3        30.04F
EDENTON*       PTCLDY    71  71 100 CALM      30.04F FOG
CURRITUCK*     PTCLDY    70  70 100 CALM      30.04F FOG
KILL DEVIL HLS PTCLDY    74  74 100 CALM      30.02F
MANTEO         CLOUDY    74  74 100 CALM      30.04F
CAPE HATTERAS  CLEAR     78  73  84 SW8       30.03F
TARBORO*       CLOUDY    72  71  97 E5        30.03F
GOLDSBORO      CLEAR     70  70 100 E6        29.99F
WASHINGTON     FOG       71  71  99 CALM      30.03S VSB 1
GREENVILLE     CLOUDY    72  72 100 E5        30.04F FOG
NEW BERN       PTCLDY    69  68  96 CALM      30.03F
WILMINGTON     CLEAR     76  72  87 SE5       29.99F
$$

VAZ048-300600-
ELSEWHERE

CITY           SKY/WX    TMP DP  RH WIND       PRES   REMARKS
HARRISBURG PA  LGT RAIN  59  57  93 E9        30.24F
BALTIMORE      LGT RAIN  62  60  93 E21       30.17F
ANNAPOLIS      LGT RAIN  65  62  90 NE13G24   30.14F FOG
ANDREWS AFB    DRIZZLE   63  61  94 NE15G21   30.12F
PHILADELPHIA   RAIN      60  57  89 NE20G25   30.22F FOG
HENDERSON NC   CLOUDY    69  67  93 SE6       30.04S
GREENSBORO     CLOUDY    71  70  96 SE10      29.99F
ROCKY MOUNT    CLOUDY    72  72 100 VRB3      30.02F
$$

VAZ100-300600-
MARINE

STATION/POSITION TIME  TEMP    WIND        PRES    WAVE   SWELL
                       AIR SEA DIR/SP/G            HT/PER HT/PER
                 (UTC) (F)     (DEG/KT/KT) (MB)    (FT/S) (FT/S)
BRANDYWINE LGT   0448   66      70/ 31/ 35   N/A
CAPE MAY NJ      0448   66 69   60/ 11/ 24 1019.9F
LEWES DE         0448   69 70   80/ 28/ 40 1018.9F
OCEAN-CITY-INLET 0448   70 72   90/ 17/ 28 1018.3F
WACHAPREAGUE VA  0448   73 73   50/  6/  8 1016.9F
THOMAS POINT MD  0500   63 72   60/ 22/ 24 1021.1F
GOOSES REEF MD   0450   68      90/ 23/ 27 1019.3F
COVE POINT MD    0448   67      90/ 20/ 26 1019.3F
SOLOMONS ISLAND  0448   68 74   60/ 15/ 21   N/A
BISHOPS HEAD MD  0448   69 70   50/ 16/ 20 1018.5F
PINEY POINT MD   0448           80/ 11/ 14   N/A
POTOMAC MD       0450   71      70/ 17/ 23 1017.0F
CAMBRIDGE MD     0448   67 72   60/ 18/ 22 1018.6F
LEWISETTA VA     0448   70 72   70/ 17/ 22 1017.5F
RAPPAHANNOCK LGT 0448           40/  5/  6 1017.6F
STINGRAY PT      0450   74      10/ 10/ 10 1017.4F
YORK RVR RNG VA  0448   74      70/  8/  8 1016.5F
YORKTOWN VA      0442   73 76   30/  9/ 10 1016.6F
JAMESTOWN VA     0450   71      30/  4/  6   N/A
DOMINION TERM VA 0442   74      30/  2/  3 1016.9F
KIPTOPEKE VA     0448      75   90/  3/  4   N/A
CHES BAY BRIDGE  0442   75 76   30/  4/  5 1016.7F
CAPE HENRY VA    0442   75      80/  2/  3   N/A
WILLOUBY STN VA  0442   75      20/  3/  4   N/A
CAPE HENRY BUOY  0442      76                N/A     5/ 8   2/11
1ST LANDING BUOY 0450   75      80/  4/  6 1016.6F
CAPE CHARLES BUO 0426      76                N/A     6/10   2/11
OFFSHORE WE BUOY 0451      75                N/A     7/ 9   2/11
64NM E OF VA BCH 0450   75 74  200/  6/  8 1016.6F   8/ 9   8/ 9
DUCK PIER NC     0442   75 76  230/  4/  5 1016.3F
44056 DUCK FRF   0411      76                N/A     5/ 8   2/11
OREGON INLET NC  0442   78 78  200/  8/  9 1016.9F
HATTERAS NC      0442   78 80  190/  3/  6 1016.7F
DIAMOND SHLS NC  0450   80 77  210/ 12/ 14 1016.7F   4/10   3/10
CAPE LOOKOUT NC  0400   79     150/ 12/ 14 1016.5F
$$




USA.gov is the U.S. government's official web portal to all federal, state and local government web resources and services.